Lexington Weather

Lexington, Massachusetts, USA

61°F
10/23/2020 5:04pm 
  • Lexington Conditions: Overcast
  • Temperature: 61.0°F / 16.1°CColder 2.9°F than last hour.
  • Dew Point: 54.5°FDecreased 2.7°Fsince last hour.
  • Relative Humidity: 79
  • Wind: Wind from SSE SSE Calm, 10-min avg: 2 mph, gust: 4 mph
  • Barometer: 30.09 in Steady
  • Visibility: 10 miles
  • Rain Today: 0.00 in
  •   

Regional Weather Roundup
for Boston / Norton, MA

        
000
ASUS41 KBOX 222305
RWRBOX

REGIONAL WEATHER ROUNDUP
NATIONAL WEATHER SERVICE BOSTON/NORTON MA
700 PM EDT THU OCT 22 2020

NOTE:  "FAIR" INDICATES FEW OR NO CLOUDS BELOW 12,000 FEET WITH NO 
SIGNIFICANT WEATHER AND/OR OBSTRUCTIONS TO VISIBILITY.

MAZALL-230000-
EASTERN MASSACHUSETTS
  
CITY           SKY/WX    TMP DP  RH WIND       PRES   REMARKS
BOSTON         FOG       54  54 100 E9        30.27R VSB 1/2          
BEVERLY        CLOUDY    56  54  93 E5        30.26R FOG              
LAWRENCE       CLOUDY    56  53  90 E6        30.29R                  
BEDFORD        MOCLDY    56  54  93 E7        30.25R                  
BLUE HILL        N/A     56  53  90 E10       30.24R                  
NORWOOD        CLEAR     58  53  84 N3        30.25R                  
MARSHFIELD     FOG       57  57 100 CALM      30.27R VSB 1/4          
PLYMOUTH       FOG       56  55  97 CALM      30.26R VSB 3/4          
TAUNTON        CLEAR     59  54  83 CALM      30.26R                  
NEW BEDFORD    CLEAR     63  54  72 E3        30.25R                  
$$

MAZALL-230000-
CAPE COD AND THE ISLANDS
  
CITY           SKY/WX    TMP DP  RH WIND       PRES   REMARKS
FALMOUTH       CLEAR     59  57  94 NE5       30.26                   
HYANNIS        CLEAR     59  56  89 CALM      30.25R                  
CHATHAM        FOG       57  56  96 NE7       30.27R VSB 1/2          
PROVINCETOWN   LGT RAIN  56  56 100 E8        30.28R VSB 1            
NANTUCKET      FOG       57  57 100 NE8       30.26R VSB 1/2          
MARTHAS VNYRD  CLEAR     58  54  86 NE5       30.25R                  
$$
 
MAZALL-230000-
CENTRAL AND WESTERN MASSACHUSETTS
  
CITY           SKY/WX    TMP DP  RH WIND       PRES   REMARKS
WORCESTER      CLOUDY    67  57  70 SE12      30.25R                  
FITCHBURG      PTCLDY    64  55  72 SE9       30.25R                  
ORANGE         CLOUDY    66  61  84 CALM      30.23R                  
SPRINGFIELD    MOCLDY    67  60  78 CALM      30.20R                  
WESTFIELD      MOCLDY    66  62  87 CALM      30.20R                  
NORTH ADAMS    CLOUDY    65  58  78 CALM      30.22R                  
PITTSFIELD     CLOUDY    67  58  72 CALM      30.22R                  
$$
 
RIZALL-230000-
RHODE ISLAND
  
CITY           SKY/WX    TMP DP  RH WIND       PRES   REMARKS
PROVIDENCE     PTCLDY    65  62  90 SE3       30.26R                  
NEWPORT        CLOUDY    63  63 100 SE6       30.25R FOG              
BLOCK ISLAND   LGT RAIN  62  61  96 S6        30.25R VSB 1/2          
SMITHFIELD     CLOUDY    66  64  93 SE6         N/A                   
WESTERLY       CLEAR     63  60  90 SE3       30.25R                  
$$
 
CTZALL-230000-
CONNECTICUT
  
CITY           SKY/WX    TMP DP  RH WIND       PRES   REMARKS
BRADLEY INTL   PTCLDY    71  62  73 S12       30.21R                  
HARTFORD       CLEAR     70  62  76 S8        30.22R                  
BRIDGEPORT     CLOUDY    68  63  84 SW3       30.23R                  
DANBURY        CLOUDY    66  62  87 SW3       30.25R                  
GROTON         PTCLDY    63  62  97 CALM      30.23R                  
NEW HAVEN      CLOUDY    69  65  86 CALM      30.23R                  
CHESTER        MOCLDY    66  64  94 CALM      30.24R                  
MERIDEN        CLEAR     67  61  81 S5        30.23R                  
WILLIMANTIC    PTCLDY    68  61  78 SE5       30.23R                  
OXFORD         CLEAR     65  63  93 S6        30.25R                  
$$

MEZ002-015-021-024-NHZ003-005-008-011-012-014-VTZ005-008-230000-
NORTHERN NEW ENGLAND
  
CITY           SKY/WX    TMP DP  RH WIND       PRES   REMARKS
PORTLAND ME    MOCLDY    52  52 100 S5        30.28R                  
BANGOR ME      MOCLDY    54  42  64 NE3       30.30R                  
CONCORD NH     CLOUDY    60  50  69 E6        30.25R                  
MANCHESTER NH  MOCLDY    60  50  69 E7        30.25R                  
NASHUA NH      CLOUDY    60  55  83 E7        30.26R                  
PORTSMOUTH NH  CLOUDY    55  53  95 E6        30.26R                  
JAFFREY NH     CLOUDY    67  56  67 CALM      30.24S                  
KEENE NH       CLOUDY    66  59  78 CALM      30.23R                  
BURLINGTON VT  CLOUDY    57  47  69 N3        30.26R                  
MT. WASHINGTON NOT AVBL                                               
$$

NYZ052-076-230000-
EASTERN NEW YORK
  
CITY           SKY/WX    TMP DP  RH WIND       PRES   REMARKS
ALBANY         MOCLDY    61  54  77 N3        30.22R                  
NEW YORK CITY  CLOUDY    69  62  78 CALM      30.22R                  
$$
 
ANZALL-230000-
MARINE OBSERVATIONS
  
STATION/POSITION TIME  TEMP    WIND        PRES    VSBY  WAVE
                       AIR SEA DIR/SP/G                  HT/PER
                 (UTC) (F)     (DEG/KT/KT) (MB)    (MI)  (FT/S)
BOSTON BUOY      2250   55 58  110/  8/ 10 1023.6R         3/13
BUZZARDS BAY     2200          130/  9/ 10 1024.7R
NANTUCKET SOUND  2250      62   80/ 10/ 12   N/A           1/12
MASS BAY-STELLWA 2204   56 56  110/  8/ 10 1023.8R  1 7/8
ISLE OF SHOALS   2200   55     130/ 10/ 11 1024.1R
S OF BLOCK IS    2226      65                N/A           4/14
$$

......................KEY.........................
  SKY/WX - SKY CONDITION/PRESENT WEATHER
  TMP    - TEMPERATURE IN FAHRENHEIT
  DWPT   - DEWPOINT IN FAHRENHEIT
  RH     - RELATIVE HUMIDITY IN PERCENT
  WIND   - DIRECTION AND SPEED IN MPH
  PRES   - MEAN SEA LEVEL PRESSURE IN INCHES OF HG
  WCI    - WIND CHILL INDEX
  VSB    - VISIBILITY IN MILES
  HX     - HEAT INDEX
  TC     - TEMPERATURE IN CELSIUS
  VRB    - VARIABLE WIND DIRECTION
  N/A    - NOT AVAILABLE
  
      

Other recent Regional Weather Roundups

Fri Oct 23, 4:04pm

Fri Oct 23, 3:04pm

Fri Oct 23, 2:05pm

Fri Oct 23, 1:04pm

Fri Oct 23, 12:04pm

Fri Oct 23, 11:04am

Fri Oct 23, 10:04am

Fri Oct 23, 9:04am

Fri Oct 23, 8:04am

Fri Oct 23, 7:04am

Fri Oct 23, 6:04am

Fri Oct 23, 5:04am

Fri Oct 23, 4:04am

Fri Oct 23, 3:04am

Fri Oct 23, 2:04am

Fri Oct 23, 1:04am

Fri Oct 23, 12:04am

Thu Oct 22, 11:04pm

Thu Oct 22, 10:04pm

Thu Oct 22, 9:05pm

Thu Oct 22, 8:04pm

Thu Oct 22, 6:04pm

Thu Oct 22, 5:04pm

Thu Oct 22, 4:05pm

Thu Oct 22, 3:04pm

Thu Oct 22, 2:05pm

Thu Oct 22, 1:04pm

Thu Oct 22, 12:04pm

Thu Oct 22, 11:04am

Thu Oct 22, 10:05am

Thu Oct 22, 9:04am

Thu Oct 22, 8:05am

Thu Oct 22, 7:04am

Thu Oct 22, 6:04am

Thu Oct 22, 5:04am

Thu Oct 22, 4:04am

Thu Oct 22, 3:04am

Thu Oct 22, 2:04am

Thu Oct 22, 1:04am

Thu Oct 22, 12:04am

Wed Oct 21, 11:05pm

Wed Oct 21, 10:04pm

Wed Oct 21, 9:04pm

Wed Oct 21, 8:04pm

Wed Oct 21, 7:04pm

Wed Oct 21, 6:04pm

Wed Oct 21, 5:05pm

Wed Oct 21, 4:04pm

Wed Oct 21, 3:04pm

Wed Oct 21, 2:05pm

Wed Oct 21, 1:04pm

Wed Oct 21, 12:04pm

Wed Oct 21, 11:04am

Wed Oct 21, 10:04am

Wed Oct 21, 9:04am

Wed Oct 21, 8:04am

Wed Oct 21, 7:04am

Wed Oct 21, 6:04am

Wed Oct 21, 5:04am

Wed Oct 21, 4:04am

Wed Oct 21, 3:04am

Wed Oct 21, 2:04am

Wed Oct 21, 1:04am

Wed Oct 21, 12:04am

Tue Oct 20, 11:05pm

Tue Oct 20, 10:04pm

Tue Oct 20, 9:04pm

Tue Oct 20, 8:05pm

Tue Oct 20, 7:04pm

Tue Oct 20, 6:04pm

Tue Oct 20, 5:05pm

Tue Oct 20, 4:04pm

Tue Oct 20, 3:05pm

Tue Oct 20, 2:07pm

Tue Oct 20, 1:04pm

Tue Oct 20, 12:04pm

Tue Oct 20, 11:04am

Tue Oct 20, 10:05am

Tue Oct 20, 9:04am

Tue Oct 20, 8:04am

Tue Oct 20, 7:04am

Tue Oct 20, 6:04am

Tue Oct 20, 5:04am

Tue Oct 20, 4:04am

Tue Oct 20, 3:04am

Tue Oct 20, 2:04am

Tue Oct 20, 1:04am

Tue Oct 20, 12:04am

Mon Oct 19, 11:04pm

Mon Oct 19, 10:04pm

Mon Oct 19, 9:04pm

Mon Oct 19, 8:04pm

Mon Oct 19, 7:04pm

Mon Oct 19, 6:04pm

Mon Oct 19, 5:04pm

Mon Oct 19, 4:04pm

Mon Oct 19, 3:04pm

Mon Oct 19, 2:04pm

Mon Oct 19, 1:05pm

Mon Oct 19, 12:04pm

Mon Oct 19, 11:04am

Mon Oct 19, 10:04am

Mon Oct 19, 9:04am

Mon Oct 19, 8:04am

Mon Oct 19, 7:04am

Mon Oct 19, 6:04am

Mon Oct 19, 5:04am

Mon Oct 19, 4:04am

Mon Oct 19, 3:04am

Mon Oct 19, 2:04am

Mon Oct 19, 1:04am

Mon Oct 19, 12:05am

Sun Oct 18, 11:04pm

Sun Oct 18, 10:04pm

Sun Oct 18, 9:04pm

Sun Oct 18, 8:04pm

Sun Oct 18, 7:05pm

Sun Oct 18, 6:04pm

Sun Oct 18, 5:05pm

Sun Oct 18, 4:05pm

Sun Oct 18, 3:04pm

Sun Oct 18, 2:05pm

Sun Oct 18, 1:04pm

Sun Oct 18, 12:04pm

Sun Oct 18, 11:04am

Sun Oct 18, 10:04am

Sun Oct 18, 9:04am

Sun Oct 18, 8:04am

Sun Oct 18, 7:04am

Sun Oct 18, 6:04am

Sun Oct 18, 5:04am

Sun Oct 18, 4:04am

Sun Oct 18, 3:04am

Sun Oct 18, 2:04am

Sun Oct 18, 1:04am

Sun Oct 18, 12:04am

Sat Oct 17, 11:05pm

Sat Oct 17, 10:04pm

Sat Oct 17, 9:04pm

Sat Oct 17, 8:04pm

Sat Oct 17, 7:04pm

Sat Oct 17, 6:04pm

Sat Oct 17, 5:05pm

Sat Oct 17, 4:04pm

Sat Oct 17, 3:04pm

Sat Oct 17, 2:05pm

Sat Oct 17, 1:05pm

Sat Oct 17, 12:04pm

Sat Oct 17, 11:05am

Sat Oct 17, 10:04am

Sat Oct 17, 9:04am

Sat Oct 17, 8:04am

Sat Oct 17, 7:04am

Sat Oct 17, 6:04am

Sat Oct 17, 5:04am

Sat Oct 17, 4:04am

Sat Oct 17, 3:04am

Sat Oct 17, 2:04am

Sat Oct 17, 1:05am

Sat Oct 17, 12:04am

Fri Oct 16, 11:05pm

Fri Oct 16, 10:04pm

Fri Oct 16, 9:05pm

Fri Oct 16, 8:04pm

Fri Oct 16, 7:05pm

Fri Oct 16, 6:04pm

Fri Oct 16, 5:04pm

Meta data:

ID: 8814520e-3e64-4828-917b-cab8e7f25a91
Link: https://api.weather.gov/products/8814520e-3e64-4828-917b-cab8e7f25a91